Weather History for Poughkeepsie, NY

Change the Weather History Date:

Tuesday, May 8, 2012

  Actual Average Record
Temperature  
Mean Temperature 59 °F 56 °F  
Max Temperature 63 °F 69 °F 86 °F (1979)
Min Temperature 54 °F 44 °F 30 °F (1981)
Degree Days  
Heating Degree Days 6 9  
Month to date heating degree days 52 80  
Since 1 July heating degree days 4704 6019  
Cooling Degree Days 0 0  
Month to date cooling degree days 2 2  
Year to date cooling degree days 9 7  
Growing Degree Days 8 (Base 50)    
Moisture  
Dew Point 51 °F    
Average Humidity 77    
Maximum Humidity 93    
Minimum Humidity 61    
Precipitation  
Precipitation 0.16 in 0.13 in 0.89 in (1971)
Month to date precipitation 1.07 1.01  
Year to date precipitation 7.93 14.10  
Sea Level Pressure  
Sea Level Pressure 29.90 in    
Wind  
Wind Speed 4 mph (SSE)    
Max Wind Speed 13 mph    
Max Gust Speed 18 mph    
Visibility 9 miles    
Events Rain    
T = Trace of Precipitation, MM = Missing Value Source: NWS Daily Summary

Daily Weather History Graph

Daily Weather History Graph

Search for Another Location

Airport:

Trip Planner

Search our weather history database for the weather conditions in past years. The results will help you decide how hot, cold, wet, or windy it might be!

Date:

Astronomy

May. 08, 2012 Rise Set
Actual Time 5:43 AM EDT 8:01 PM EDT
Civil Twilight 5:12 AM EDT 8:32 PM EDT
Nautical Twilight 4:33 AM EDT 9:11 PM EDT
Astronomical Twilight 3:51 AM EDT 9:53 PM EDT
Moon 11:10 PM EDT (5/8) 7:46 AM EDT (5/8)
Length of Visible Light 15h 20m
Length of Day
14h 18m
Waning Gibbous, 91% of the Moon is Illuminated
May 8
Waning Gibbous
May 12
Last Quarter
May 20
New
May 28
First Quarter
Jun 4
Full

Hourly Weather History & Observations

Time (EDT) Temp. Dew Point Humidity Pressure Visibility Wind Dir Wind Speed Gust Speed Precip Events Conditions
12:53 AM 55.0 °F 43.0 °F 64% 30.05 in 10.0 mi South 4.6 mph - N/A   Overcast
1:53 AM 54.0 °F 44.1 °F 69% 30.03 in 10.0 mi SE 3.5 mph - N/A   Overcast
2:53 AM 55.0 °F 42.1 °F 62% 30.01 in 10.0 mi Calm Calm - N/A   Overcast
3:53 AM 54.0 °F 42.1 °F 64% 30.01 in 10.0 mi Calm Calm - N/A   Overcast
4:53 AM 55.0 °F 42.1 °F 62% 29.99 in 10.0 mi SSE 5.8 mph - N/A   Overcast
5:53 AM 55.0 °F 43.0 °F 64% 30.00 in 10.0 mi SSE 4.6 mph - N/A   Overcast
6:53 AM 55.0 °F 43.0 °F 64% 30.00 in 10.0 mi SE 4.6 mph - N/A   Overcast
7:53 AM 55.0 °F 44.1 °F 67% 29.98 in 10.0 mi SSE 5.8 mph - N/A   Overcast
8:53 AM 57.0 °F 46.0 °F 67% 29.97 in 10.0 mi SSE 5.8 mph - N/A   Overcast
9:53 AM 57.9 °F 48.0 °F 70% 29.95 in 10.0 mi SSE 8.1 mph 18.4 mph N/A   Overcast
10:53 AM 59.0 °F 50.0 °F 72% 29.93 in 10.0 mi Variable 6.9 mph - 0.00 in Rain Light Rain
11:53 AM 61.0 °F 51.1 °F 70% 29.91 in 10.0 mi SSE 9.2 mph - 0.00 in   Overcast
12:53 PM 62.1 °F 53.1 °F 72% 29.88 in 10.0 mi SSE 9.2 mph - 0.00 in Rain Light Rain
1:53 PM 63.0 °F 53.1 °F 70% 29.87 in 9.0 mi Variable 5.8 mph - 0.01 in Rain Light Rain
2:53 PM 61.0 °F 55.0 °F 81% 29.86 in 10.0 mi South 5.8 mph - 0.02 in Rain Light Rain
3:53 PM 60.1 °F 55.0 °F 83% 29.86 in 8.0 mi Calm Calm - 0.04 in Rain Light Rain
4:53 PM 60.1 °F 57.0 °F 90% 29.83 in 8.0 mi Calm Calm - 0.04 in Rain Light Rain
5:53 PM 61.0 °F 57.0 °F 87% 29.82 in 10.0 mi South 3.5 mph - 0.01 in Rain Light Rain
6:48 PM 60.8 °F 55.4 °F 82% 29.82 in 8.0 mi Calm Calm - 0.00 in Rain Light Rain
6:53 PM 60.1 °F 55.9 °F 86% 29.82 in 8.0 mi Calm Calm - 0.00 in Rain Light Rain
7:53 PM 59.0 °F 57.0 °F 93% 29.82 in 4.0 mi Calm Calm - 0.01 in Rain Light Rain
8:53 PM 59.0 °F 55.9 °F 90% 29.83 in 6.0 mi SE 3.5 mph - 0.02 in   Overcast
9:53 PM 59.0 °F 57.0 °F 93% 29.83 in 5.0 mi SE 3.5 mph - N/A   Overcast
10:02 PM 59.0 °F 55.4 °F 88% 29.84 in 4.0 mi ESE 3.5 mph - N/A   Overcast
10:53 PM 59.0 °F 57.0 °F 93% 29.82 in 4.0 mi SSE 3.5 mph - 0.01 in   Overcast
11:13 PM 59.0 °F 57.2 °F 94% 29.82 in 7.0 mi Calm Calm - N/A   Overcast
11:53 PM 59.0 °F 55.9 °F 90% 29.81 in 10.0 mi SE 3.5 mph - N/A   Overcast